Location: Poughquag
(41.6090°N, 73.6820°W)
Time: 05:37:12
(UTC-05:00)

Envisat - Visible Passes

Search period start: 05 March 2024 00:00
Search period end: 15 March 2024 01:00
Orbit: 762 x 764 km, 98.3° (Epoch: 04 March)

Date Brightness Start Highest point End Pass type
(mag) Time Alt. Az. Time Alt. Az. Time Alt. Az.
05 Mar 5.1 02:54:50 10° NNE 02:56:45 22° NE 02:56:45 22° NE visible
05 Mar 4.6 04:34:32 10° NNW 04:36:55 19° NW 04:36:55 19° NW visible
06 Mar 5.8 02:18:24 10° NE 02:19:09 13° NE 02:19:09 13° NE visible
06 Mar 4.2 03:56:31 10° N 03:59:19 30° NNW 03:59:19 30° NNW visible
07 Mar 4.4 03:19:03 10° NNE 03:21:44 32° NNE 03:21:44 32° NNE visible
07 Mar 4.8 05:00:01 10° NNW 05:01:54 13° NW 05:01:54 13° NW visible
08 Mar 5.2 02:42:07 10° NNE 02:44:08 21° NE 02:44:08 21° NE visible
08 Mar 4.3 04:21:18 10° N 04:24:18 25° NW 04:24:18 25° NW visible
09 Mar 5.9 02:06:07 10° NE 02:06:33 11° ENE 02:06:33 11° ENE visible
09 Mar 3.9 03:43:30 10° N 03:46:43 38° N 03:46:43 38° N visible
10 Mar 4.4 04:06:12 10° NNE 04:09:07 34° NE 04:09:07 34° NE visible
10 Mar 4.6 05:46:26 10° NNW 05:49:18 17° NW 05:49:18 17° NW visible
11 Mar 5.3 03:29:29 10° NE 03:31:31 20° ENE 03:31:31 20° ENE visible
11 Mar 3.9 05:08:10 10° N 05:11:42 32° NW 05:11:42 32° NW visible
12 Mar 3.7 04:30:32 10° N 04:34:06 46° N 04:34:06 46° N visible
12 Mar 5.0 06:12:48 10° NW 06:13:44 10° WNW 06:14:16 10° WNW visible
13 Mar 4.5 03:53:24 10° NNE 03:56:30 33° NE 03:56:30 33° NE visible
13 Mar 4.3 05:33:04 10° NNW 05:36:41 22° WNW 05:36:41 22° WNW visible
14 Mar 5.5 03:16:59 10° NE 03:18:54 17° ENE 03:18:54 17° ENE visible
14 Mar 3.5 04:55:04 10° N 04:59:05 43° NW 04:59:05 43° NW visible
